| time (UTC) | temp C | wind direction | speed KPH | gust KPH | rain 1hr cm | rain 24hr cm | rain mn cm | humidity % | barometer mb |
| 20260504050015 | 22 | 326 | 4.8 | 9.7 | 0.00 | 0.00 | 0.00 | 27 | 1005.8 |
| 20260504044518 | 22 | 322 | 6.4 | 11.3 | 0.00 | 0.00 | 0.00 | 25 | 1005.9 |
| 20260504043016 | 23 | 332 | 3.2 | 16.1 | 0.00 | 0.00 | 0.00 | 25 | 1005.7 |
| 20260504041513 | 23 | 314 | 6.4 | 11.3 | 0.00 | 0.00 | 0.00 | 24 | 1005.6 |
| 20260504040015 | 23 | 316 | 4.8 | 11.3 | 0.00 | 0.00 | 0.00 | 23 | 1005.2 |
| 20260504034512 | 23 | 328 | 6.4 | 14.5 | 0.00 | 0.00 | 0.00 | 22 | 1004.8 |
| 20260504033013 | 24 | 317 | 4.8 | 14.5 | 0.00 | 0.00 | 0.00 | 20 | 1004.5 |
| 20260504031513 | 25 | 320 | 4.8 | 12.9 | 0.00 | 0.00 | 0.00 | 19 | 1004.3 |
| 20260504030010 | 25 | 350 | 4.8 | 12.9 | 0.00 | 0.00 | 0.00 | 18 | 1003.9 |
| 20260504024609 | 25 | 311 | 4.8 | 11.3 | 0.00 | 0.00 | 0.00 | 17 | 1003.6 |
| 20260504023010 | 26 | 323 | 4.8 | 14.5 | 0.00 | 0.00 | 0.00 | 16 | 1003.1 |
| 20260504021511 | 26 | 334 | 4.8 | 12.9 | 0.00 | 0.00 | 0.00 | 14 | 1002.8 |
| 20260504020007 | 27 | 290 | 3.2 | 16.1 | 0.00 | 0.00 | 0.00 | 13 | 1002.7 |
| 20260504014506 | 27 | 319 | 4.8 | 17.7 | 0.00 | 0.00 | 0.00 | 13 | 1002.7 |
| 20260504013007 | 28 | 326 | 6.4 | 16.1 | 0.00 | 0.00 | 0.00 | 13 | 1002.3 |
| 20260504011505 | 29 | 254 | 8.0 | 20.9 | 0.00 | 0.00 | 0.00 | 12 | 1002.5 |
| 20260504010004 | 29 | 247 | 8.0 | 17.7 | 0.00 | 0.00 | 0.00 | 12 | 1002.7 |
| 20260504004509 | 30 | 293 | 6.4 | 14.5 | 0.00 | 0.00 | 0.00 | 13 | 1002.7 |
| 20260504003003 | 30 | 294 | 6.4 | 19.3 | 0.00 | 0.00 | 0.00 | 13 | 1002.5 |
| 20260504001507 | 31 | 267 | 6.4 | 20.9 | 0.00 | 0.00 | 0.00 | 14 | 1002.4 |
| 20260504000002 | 31 | 237 | 8.0 | 20.9 | 0.00 | 0.00 | 0.00 | 14 | 1002.3 |
| 20260503234501 | 31 | 319 | 6.4 | 17.7 | 0.00 | 0.00 | 0.00 | 14 | 1001.9 |
| 20260503233109 | 31 | 338 | 4.8 | 16.1 | 0.00 | 0.00 | 0.00 | 15 | 1001.9 |
| 20260503231558 | 32 | 328 | 4.8 | 17.7 | 0.00 | 0.00 | 0.00 | 15 | 1002.1 |
| 20260503230111 | 31 | 275 | 4.8 | 19.3 | 0.00 | 0.00 | 0.00 | 14 | 1002.1 |
| 20260503224555 | 32 | 302 | 6.4 | 16.1 | 0.00 | 0.00 | 0.00 | 15 | 1002.4 |
| 20260503223109 | 32 | 273 | 4.8 | 9.7 | 0.00 | 0.00 | 0.00 | 15 | 1002.4 |
| 20260503221553 | 31 | 91 | 3.2 | 4.8 | 0.00 | 0.00 | 0.00 | 17 | 1002.6 |
| 20260503220146 | 30 | 322 | 4.8 | 9.7 | 0.00 | 0.00 | 0.00 | 24 | 1002.6 |
| 20260503214553 | 29 | 314 | 0.0 | 6.4 | 0.00 | 0.00 | 0.00 | 24 | 1002.9 |
| 20260503213043 | 29 | 286 | 0.0 | 6.4 | 0.00 | 0.00 | 0.00 | 24 | 1003.3 |
| 20260503211537 | 29 | 91 | 1.6 | 9.7 | 0.00 | 0.00 | 0.00 | 24 | 1003.6 |
| 20260503210034 | 29 | 132 | 1.6 | 8.0 | 0.00 | 0.00 | 0.00 | 25 | 1003.8 |
| 20260503204536 | 28 | 128 | 0.0 | 11.3 | 0.00 | 0.00 | 0.00 | 27 | 1004.1 |
| 20260503203030 | 29 | 124 | 0.0 | 1.6 | 0.00 | 0.00 | 0.00 | 23 | 1004.3 |
| 20260503201528 | 28 | 152 | 1.6 | 11.3 | 0.00 | 0.00 | 0.00 | 23 | 1004.6 |
| 20260503200025 | 29 | 260 | 0.0 | 12.9 | 0.00 | 0.00 | 0.00 | 22 | 1004.9 |
| 20260503194523 | 29 | 99 | 1.6 | 8.0 | 0.00 | 0.00 | 0.00 | 22 | 1004.9 |
| 20260503193020 | 28 | 234 | 3.2 | 8.0 | 0.00 | 0.00 | 0.00 | 24 | 1005.1 |
| 20260503191516 | 28 | 146 | 4.8 | 9.7 | 0.00 | 0.00 | 0.00 | 25 | 1005.2 |
| 20260503190016 | 28 | 248 | 3.2 | 9.7 | 0.00 | 0.00 | 0.00 | 26 | 1005.4 |
| 20260503184512 | 27 | 285 | 0.0 | 8.0 | 0.00 | 0.00 | 0.00 | 28 | 1005.8 |
| 20260503183008 | 27 | 104 | 1.6 | 6.4 | 0.00 | 0.00 | 0.00 | 28 | 1006.1 |
| 20260503181520 | 27 | 98 | 1.6 | 8.0 | 0.00 | 0.00 | 0.00 | 28 | 1006.4 |
| 20260503180014 | 27 | 129 | 0.0 | 4.8 | 0.00 | 0.00 | 0.00 | 28 | 1006.4 |
| 20260503174504 | 27 | 99 | 0.0 | 8.0 | 0.00 | 0.00 | 0.00 | 30 | 1006.6 |
| 20260503173002 | 27 | 119 | 1.6 | 4.8 | 0.00 | 0.00 | 0.00 | 30 | 1006.8 |
| 20260503171600 | 26 | 121 | 0.0 | 4.8 | 0.00 | 0.00 | 0.00 | 30 | 1006.7 |
| 20260503170113 | 26 | 250 | 1.6 | 6.4 | 0.00 | 0.00 | 0.00 | 30 | 1006.8 |
| 20260503081557 | 23 | 100 | 0.0 | 11.3 | 0.00 | 0.00 | 0.00 | 32 | 1006.4 |
| 20260503071649 | 23 | 93 | 6.4 | 14.5 | 0.00 | 0.00 | 0.00 | 31 | 1006.6 |
| 20260503054540 | 25 | 79 | 6.4 | 17.7 | 0.00 | 0.00 | 0.00 | 30 | 1005.8 |
| 20260503053038 | 24 | 318 | 8.0 | 22.5 | 0.00 | 0.00 | 0.00 | 30 | 1005.8 |
| 20260503051537 | 24 | 316 | 6.4 | 16.1 | 0.00 | 0.00 | 0.00 | 30 | 1006.0 |